CZ-6A DEB, 56604

Orbit data source: Space-Track

CZ-6A DEB, 56604 is space debris in SSO originally from a launch on Fri, 11 Nov 2022 UTC launched from the Taiyaun Space Center, China (TSC). Debris objects in space refer to the collection of defunct objects orbiting the Earth. Examples of debris include non-operational satellites, rocket bodies, and fragments generated from explosions, collisions, or faulty payload assembly.

Loading next visibility...
Identifier
56604, 2022-151AEC
Orbit
SSO
Country
Flag of CNCN / PRC
Related business
Manufacturer
SAST
Mission
Spacecraft
Bus & Motor
Unknown
Mass
Unknown
Launch date (UTC)
2022-11-11 (4 years ago)
Launch vehicle
Unknown
Launch site
Taiyaun Space Center, China (TSC)
Object type
Payload
Rocket body
Debris
Shape & HBR
Unknown shape, 0.1 m
Radar Cross Section
Medium (>0.1 m² and <1 m²)

Expand to show TLE details & history
Last TLE update: 2 days ago

TLE from 2 days ago
0 CZ-6A DEB
1 56604U 22151AEC 26171.21951233  .00107460  00000-0  50746-2 0  9997
2 56604  98.6245 259.5774 0030834 210.4378 149.5063 15.18537999178886
Epoch: 2026-06-20T05:16Z
TLE epoch observation values (Epoch: 2026-06-20T05:16:05.865Z)
Latitude
-0.00008°
Longitude
-87.8843°
Altitude
531.632 km
Speed
7.587 km/s
True Right ascension
17h 18m 18s
True Declination
0° 00' 00"
Sunlit
Object was in full shadow at epoch
Visualization orbit readout
Latitude
Unknown
Longitude
Unknown
Altitude
Unknown
Speed
Unknown
Apparent Right ascension
Unknown
Apparent Declination
Unknown
Sunlit
N/A
Visualization observer readout
Local Sidereal Time
21:36:36
Azimuth
Unknown
Elevation
Unknown
Doppler factor
Unknown
Orbital elements
Apogee altitude
528.513 km
Perigee altitude
486.052 km
Semi-major axis
6,885.419 km
Eccentricity
0.00308
Inclination
98.6245°
RAAN
259.5774°
Arg. of periapsis
210.4378°
True anomaly
149.685°
Mean anomaly
149.5063°
Eccentric anomaly
149.59571°
Mean motion
3.79881 °/min
Orbital period
94.77 mins
BSTAR
0.0050746
Loading maneuver chart data...
Computing Atmospheric mass density...
Loading historical data...
Loading historical data...
Loading historical data...
Loading historical data...
Loading historical data...
Loading historical data...
Loading historical data...

Documentation

Showing up to 5 results
|